Stations météo

réclame
Mon MeteoGroup
Rotterdam Zestienhoven, Pays-Bas (6344): Température de l'air & dewpoint: 09.08.2018 00:00:00 - 15.08.2018 00:00:00 (CEST)Rotterdam Zestienhoven, Pays-Bas (6344): Température de l'air 5cm: 09.08.2018 00:00:00 - 15.08.2018 00:00:00 (CEST)Rotterdam Zestienhoven, Pays-Bas (6344): Vitesse du vent & gusts: 09.08.2018 00:00:00 - 15.08.2018 00:00:00 (CEST)Rotterdam Zestienhoven, Pays-Bas (6344): Direction du vent: 09.08.2018 00:00:00 - 15.08.2018 00:00:00 (CEST)Rotterdam Zestienhoven, Pays-Bas (6344): reduced air pressure: 09.08.2018 00:00:00 - 15.08.2018 00:00:00 (CEST)Rotterdam Zestienhoven, Pays-Bas (6344): visibility: 09.08.2018 00:00:00 - 15.08.2018 00:00:00 (CEST)Rotterdam Zestienhoven, Pays-Bas (6344): Quantités de précipitations: 09.08.2018 00:00:00 - 15.08.2018 00:00:00 (CEST)
Date & Time tt [°C] td [°C] tt 5cm [°C] ff [km/h] ff [knt] fx [km/h] fx [knt] dd ppp [hPa] vv [km] rr [mm]
15.08.2018 00:00:00 - - - - - - - - - - -
14.08.2018 23:00:00 18,2 14,6 17,1 9 5 18 10 WSW 1017,6 10 0,0
14.08.2018 22:00:00 18,6 14,2 17,4 11 6 22 12 WSW 1017,6 10 0,0
14.08.2018 21:00:00 18,7 14,5 17,9 8 4 14 8 W 1017,2 10 0,0
14.08.2018 20:00:00 18,7 14,5 18,4 13 7 25 14 W 1017,0 10 0,0
14.08.2018 19:00:00 19,5 14,3 20,5 21 11 29 16 WSW 1016,7 10 0,0
14.08.2018 18:00:00 20,2 16,4 20,5 13 7 29 16 W 1016,6 10 0,0
14.08.2018 17:00:00 18,9 16,9 18,9 9 5 25 14 W 1016,6 10 0,3
14.08.2018 16:00:00 19,2 16,0 19,6 13 7 25 14 W 1016,5 10 0,0
14.08.2018 15:00:00 19,9 15,2 21,9 15 8 29 16 WNW 1016,1 10 0,0
14.08.2018 14:00:00 20,0 14,9 21,2 15 8 29 16 W 1015,7 10 0,0
14.08.2018 13:00:00 20,9 13,5 23,7 18 10 29 16 W 1014,8 10 0,0
14.08.2018 12:00:00 21,2 13,8 25,1 18 10 29 16 WNW 1014,6 10 0,0
14.08.2018 11:00:00 20,4 14,4 21,1 21 11 32 18 W 1014,2 10 0,0
14.08.2018 10:00:00 20,0 14,5 19,3 18 10 32 18 WNW 1013,6 10 0,0
14.08.2018 09:00:00 19,4 14,4 20,4 21 11 32 18 WNW 1012,9 10 0,0
14.08.2018 08:00:00 18,6 14,7 17,2 16 9 29 16 WNW 1012,2 10 0,0
14.08.2018 07:00:00 17,5 14,4 16,5 16 9 25 14 WNW 1011,4 10 0,0
14.08.2018 06:00:00 17,7 14,4 17,0 15 8 29 16 WNW 1010,9 10 0,0
14.08.2018 05:00:00 18,3 15,0 17,6 16 9 29 16 WNW 1010,2 10 0,0
14.08.2018 04:00:00 18,4 16,0 17,8 16 9 25 14 WNW 1009,7 10 0,0
14.08.2018 03:00:00 18,6 16,1 17,8 11 6 18 10 W 1009,2 10 0,0
14.08.2018 02:00:00 18,2 16,7 17,4 11 6 14 8 WSW 1009,1 10 0,0
14.08.2018 01:00:00 17,8 16,3 16,7 8 4 18 10 W 1008,7 10 0,0
14.08.2018 00:00:00 18,2 16,2 16,9 11 6 18 10 W 1008,3 10 0,0
13.08.2018 23:00:00 17,7 15,5 16,9 9 5 22 12 WSW 1007,9 10 0,0
13.08.2018 22:00:00 17,9 15,6 16,8 13 7 18 10 WSW 1007,6 10 0,0
13.08.2018 21:00:00 18,6 15,3 18,0 9 5 22 12 W 1007,4 10 0,0
13.08.2018 20:00:00 19,2 15,4 19,1 15 8 29 16 W 1006,9 10 0,0
13.08.2018 19:00:00 20,4 15,5 19,9 15 8 29 16 W 1006,6 10 0,0
13.08.2018 18:00:00 20,2 15,9 20,2 15 8 32 18 W 1006,3 10 0,0
13.08.2018 17:00:00 19,9 15,4 21,0 21 11 36 19 W 1006,0 10 0,0
13.08.2018 16:00:00 21,8 16,8 23,0 22 12 32 18 W 1005,7 10 0,0
13.08.2018 15:00:00 20,6 18,5 20,2 16 9 25 14 W 1005,5 10 0,1
13.08.2018 14:00:00 18,4 17,1 18,8 18 10 40 21 W 1005,6 10 0,2
13.08.2018 13:00:00 22,4 16,2 22,6 15 8 29 16 SW 1005,0 10 0,0
13.08.2018 12:00:00 20,1 16,7 19,7 15 8 25 14 SSW 1005,4 10 0,1
13.08.2018 11:00:00 19,1 16,8 19,0 16 9 22 12 SW 1005,6 10 0,0
13.08.2018 10:00:00 19,8 16,5 20,2 16 9 29 16 SW 1005,3 10 0,0
13.08.2018 09:00:00 20,1 16,0 19,8 18 10 32 18 SSW 1005,3 10 0,0
13.08.2018 08:00:00 19,6 16,1 18,3 13 7 18 10 S 1005,1 10 0,0
13.08.2018 07:00:00 17,1 15,7 15,9 4 2 7 4 - 1004,9 10 0,0
13.08.2018 06:00:00 17,6 15,5 15,6 4 2 4 2 SSE 1005,2 10 0,0
13.08.2018 05:00:00 17,5 15,8 15,9 2 1 4 2 ENE 1005,5 10 0,0
13.08.2018 04:00:00 18,0 15,2 16,8 2 1 4 2 - 1006,1 10 0,0
13.08.2018 03:00:00 18,5 14,8 17,0 4 2 7 4 - 1006,6 10 0,0
13.08.2018 02:00:00 19,4 15,2 18,1 4 2 11 6 - 1007,4 10 0,0
13.08.2018 01:00:00 19,5 15,6 18,6 8 4 11 6 NW 1007,6 10 0,0
13.08.2018 00:00:00 20,2 15,4 19,2 5 3 11 6 N 1007,9 10 0,0
12.08.2018 23:00:00 21,9 13,9 18,2 2 1 7 4 - 1008,3 10 0,0
12.08.2018 22:00:00 20,5 15,0 18,1 2 1 7 4 NE 1008,9 10 0,0
12.08.2018 21:00:00 22,2 14,9 20,0 0 0 7 4 N 1009,1 10 0,0
12.08.2018 20:00:00 23,8 14,3 22,7 8 4 18 10 SW 1009,3 10 0,0
12.08.2018 19:00:00 25,0 11,2 23,9 13 7 25 14 SW 1009,9 10 0,0
12.08.2018 18:00:00 25,5 11,0 25,2 15 8 32 18 SSW 1010,6 10 0,0
12.08.2018 17:00:00 25,9 10,4 26,5 21 11 40 21 SSW 1011,2 10 0,0
12.08.2018 16:00:00 26,7 10,4 29,5 21 11 43 23 SSW 1011,9 10 0,0
12.08.2018 15:00:00 25,8 10,4 28,6 21 11 40 21 S 1012,7 10 0,0
12.08.2018 14:00:00 26,6 11,0 28,5 26 14 43 23 SSW 1013,4 10 0,0
12.08.2018 13:00:00 24,1 10,9 25,0 26 14 40 21 SSW 1014,0 10 0,0
12.08.2018 12:00:00 22,8 11,1 23,9 24 13 40 21 SSW 1014,6 10 0,0
12.08.2018 11:00:00 21,5 10,5 21,7 22 12 40 21 SSW 1015,0 10 0,0
12.08.2018 10:00:00 20,5 11,0 20,8 22 12 32 18 S 1015,1 10 0,0
12.08.2018 09:00:00 19,0 11,6 18,8 16 9 25 14 S 1015,6 10 0,0
12.08.2018 08:00:00 17,5 10,9 17,0 13 7 32 18 SSE 1015,9 10 0,0
12.08.2018 07:00:00 17,2 10,8 16,3 13 7 18 10 SSE 1016,3 10 0,0
12.08.2018 06:00:00 16,5 11,3 15,8 8 4 14 8 S 1016,7 10 0,0
12.08.2018 05:00:00 16,4 11,0 15,8 13 7 18 10 SSE 1017,2 10 0,0
12.08.2018 04:00:00 16,3 10,6 15,5 13 7 22 12 SSE 1018,1 10 0,0
12.08.2018 03:00:00 16,4 10,1 14,4 13 7 22 12 SSE 1018,7 10 0,0
12.08.2018 02:00:00 13,3 10,8 10,5 5 3 14 8 SE 1019,5 10 0,0
12.08.2018 01:00:00 12,7 10,6 9,8 2 1 7 4 - 1020,0 10 0,0
12.08.2018 00:00:00 13,2 11,5 9,7 2 1 7 4 ENE 1020,6 10 0,0
11.08.2018 23:00:00 13,6 9,6 9,3 2 1 7 4 - 1021,0 10 0,0
11.08.2018 22:00:00 14,3 9,8 9,7 0 0 4 2 N 1021,5 10 0,0
11.08.2018 21:00:00 16,0 10,2 12,7 2 1 7 4 - 1021,7 10 0,0
11.08.2018 20:00:00 18,0 9,4 18,3 8 4 18 10 W 1021,9 10 0,0
11.08.2018 19:00:00 18,8 9,9 21,1 11 6 25 14 W 1022,5 10 0,0
11.08.2018 18:00:00 18,9 8,4 21,9 16 9 29 16 WSW 1022,7 10 0,0
11.08.2018 17:00:00 19,2 10,0 22,3 18 10 32 18 W 1022,9 10 0,0
11.08.2018 16:00:00 18,3 9,4 20,8 18 10 32 18 W 1023,0 10 0,0
11.08.2018 15:00:00 18,3 9,8 20,9 16 9 29 16 W 1023,1 10 0,0
11.08.2018 14:00:00 19,3 9,2 23,5 22 12 36 19 WSW 1022,9 10 0,0
11.08.2018 13:00:00 19,1 10,5 22,4 18 10 32 18 W 1023,0 10 0,0
11.08.2018 12:00:00 17,1 9,5 18,1 18 10 32 18 W 1022,9 10 0,0
11.08.2018 11:00:00 18,1 10,2 19,3 18 10 32 18 W 1022,6 10 0,0
11.08.2018 10:00:00 17,3 9,6 18,4 16 9 32 18 W 1022,2 10 0,0
11.08.2018 09:00:00 16,7 10,0 16,6 15 8 25 14 W 1021,8 10 0,0
11.08.2018 08:00:00 15,0 10,6 13,6 11 6 18 10 WSW 1021,2 10 0,0
11.08.2018 07:00:00 13,1 9,7 10,6 11 6 14 8 W 1020,5 10 0,0
11.08.2018 06:00:00 12,1 9,2 9,7 11 6 14 8 WSW 1020,2 10 0,0
11.08.2018 05:00:00 11,5 9,9 9,2 9 5 14 8 WSW 1019,9 10 0,0
11.08.2018 04:00:00 13,2 11,8 12,4 11 6 18 10 WNW 1019,7 10 0,0
11.08.2018 03:00:00 13,1 12,1 12,0 13 7 22 12 SW 1019,4 10 0,0
11.08.2018 02:00:00 13,2 11,7 12,6 16 9 25 14 SSW 1019,3 10 0,5
11.08.2018 01:00:00 12,8 11,5 12,3 13 7 22 12 SSW 1019,4 10 1,1
11.08.2018 00:00:00 12,4 10,9 12,0 18 10 43 23 SSW 1018,9 9 3,0
10.08.2018 23:00:00 14,7 12,8 14,0 31 17 54 29 SW 1018,1 10 2,0
10.08.2018 22:00:00 15,8 13,0 15,0 31 17 58 31 SSW 1018,3 10 0,8
10.08.2018 21:00:00 15,6 12,9 14,7 39 21 58 31 SW 1018,5 10 0,9
10.08.2018 20:00:00 16,8 12,2 15,5 34 18 65 35 SW 1018,4 10 0,3
10.08.2018 19:00:00 19,1 9,7 18,8 34 18 61 33 SSW 1018,1 10 0,0
10.08.2018 18:00:00 20,6 10,6 21,1 26 14 47 25 SSW 1018,4 10 0,0
10.08.2018 17:00:00 20,1 9,5 20,4 29 16 47 25 SW 1019,4 10 0,0
10.08.2018 16:00:00 20,3 9,7 21,1 29 16 43 23 SSW 1020,0 10 0,0
10.08.2018 15:00:00 21,6 10,3 22,0 26 14 50 27 SW 1020,1 10 0,0
10.08.2018 14:00:00 21,1 9,4 20,9 31 17 54 29 SW 1020,1 10 0,0
10.08.2018 13:00:00 20,2 10,2 20,3 35 19 54 29 SW 1020,0 10 0,0
10.08.2018 12:00:00 18,8 11,7 18,0 26 14 40 21 SW 1019,8 10 0,0
10.08.2018 11:00:00 18,3 12,2 19,9 29 16 43 23 SW 1019,7 10 0,0
10.08.2018 10:00:00 17,1 12,9 17,8 26 14 43 23 SW 1019,6 10 0,0
10.08.2018 09:00:00 16,4 13,5 16,3 21 11 32 18 S 1019,0 10 0,0
10.08.2018 08:00:00 15,7 13,7 15,5 21 11 36 19 S 1018,6 10 0,0
10.08.2018 07:00:00 14,3 12,7 13,4 15 8 25 14 SSW 1018,3 10 0,0
10.08.2018 06:00:00 14,3 12,9 13,6 13 7 22 12 S 1017,9 10 0,3
10.08.2018 05:00:00 12,3 10,4 8,5 9 5 14 8 SSW 1017,8 10 0,0
10.08.2018 04:00:00 11,6 9,1 10,5 9 5 18 10 WSW 1017,8 10 0,0
10.08.2018 03:00:00 14,3 11,2 12,9 9 5 29 16 W 1017,2 10 0,0
10.08.2018 02:00:00 14,8 11,5 13,8 21 11 32 18 W 1016,4 10 0,0
10.08.2018 01:00:00 14,7 12,2 13,8 16 9 32 18 W 1015,3 10 0,0
10.08.2018 00:00:00 14,9 13,0 14,3 21 11 50 27 W 1013,7 10 0,7
09.08.2018 23:00:00 15,3 14,2 15,1 28 15 50 27 W 1012,4 6 1,7
09.08.2018 22:00:00 15,8 15,0 15,7 21 11 40 21 W 1010,4 5 0,7
09.08.2018 21:00:00 16,5 15,3 16,2 26 14 47 25 W 1008,5 10 0,1
09.08.2018 20:00:00 16,6 15,7 16,5 39 21 61 33 W 1005,3 10 2,4
09.08.2018 19:00:00 19,4 18,0 19,3 5 3 14 8 - 1004,7 10 0,0
09.08.2018 18:00:00 19,1 17,4 19,4 9 5 14 8 ENE 1005,5 10 0,0
09.08.2018 17:00:00 18,3 16,9 18,1 5 3 18 10 NE 1006,6 10 0,2
09.08.2018 16:00:00 17,9 16,2 17,7 13 7 25 14 ENE 1007,3 10 1,1
09.08.2018 15:00:00 18,3 16,3 18,4 9 5 14 8 N 1008,5 9 2,1
09.08.2018 14:00:00 19,0 15,7 18,6 9 5 18 10 NNE 1009,4 10 0,4
09.08.2018 13:00:00 19,9 14,2 19,3 21 11 29 16 ENE 1009,8 10 0,0
09.08.2018 12:00:00 21,5 12,3 21,9 16 9 25 14 ENE 1010,7 10 0,0
09.08.2018 11:00:00 21,7 12,5 22,7 13 7 22 12 E 1012,0 10 0,0
09.08.2018 10:00:00 20,3 13,1 20,6 11 6 18 10 E 1012,5 10 0,0
09.08.2018 09:00:00 19,2 13,5 19,8 8 4 14 8 ENE 1013,2 10 0,0
09.08.2018 08:00:00 18,0 13,2 16,8 9 5 29 16 SE 1013,4 10 0,0
09.08.2018 07:00:00 16,5 13,4 14,2 5 3 11 6 ENE 1013,6 10 0,0
09.08.2018 06:00:00 14,0 12,8 9,3 4 2 4 2 ENE 1013,9 10 0,0
09.08.2018 05:00:00 14,8 12,9 9,6 4 2 14 8 NE 1014,1 10 0,0
09.08.2018 04:00:00 14,2 12,8 9,4 8 4 18 10 S 1014,5 10 0,0
09.08.2018 03:00:00 16,0 12,6 10,1 11 6 14 8 SSE 1014,6 10 0,0
09.08.2018 02:00:00 14,5 12,9 9,0 9 5 14 8 S 1015,0 10 0,0
09.08.2018 01:00:00 15,4 12,3 9,4 8 4 11 6 SSE 1014,9 10 0,0
09.08.2018 00:00:00 15,6 12,7 10,0 8 4 11 6 S 1014,9 10 0,0

tt = Température de l'air
td = dewpoint
tt 5cm = Température de l'air 5cm
ff = Vitesse du vent
fx = gusts
dd = Direction du vent
ppp = reduced air pressure
vv = visibility
rr = Quantités de précipitations

stations d'obs. à proximité